Overview Statistics Trail Chart Weather Telemetry Raw packets
 

This is the latest recevied weather packets stored in our database for station/object N7ZAP. If no packets are shown the sender has not sent any weather packets the latest 10 day(s).

<< 94 95 96 97 98 99 100 >>
Time Temp. Humidity Pressure Rain* Wind** Luminosity Snow
1787991543 23.33° C 36% 1022.7 hPa 0 mm - - -
1787991240 23.89° C 36% 1022.8 hPa 0 mm - - -
1787990934 23.89° C 36% 1022.8 hPa 0 mm - - -
1787990629 23.89° C 36% 1022.6 hPa 0 mm - - -
1787990328 23.89° C 35% 1023 hPa 0 mm - - -
1787990023 24.44° C 34% 1022.7 hPa 0 mm - - -
1787989722 24.44° C 34% 1022.7 hPa 0 mm - - -
1787989418 25° C 33% 1023 hPa 0 mm - - -
1787989116 25° C 33% 1022.7 hPa 0 mm - - -
1787988815 25.56° C 33% 1022.7 hPa 0 mm - - -
1787988512 26.67° C 31% 1022.8 hPa 0 mm - - -
1787988211 27.22° C 31% 1023 hPa 0 mm - - -
1787987907 27.22° C 30% 1023 hPa 0 mm - - -
1787987608 27.22° C 30% 1022.6 hPa 0 mm - - -
1787987303 27.78° C 30% 1022.7 hPa 0 mm - - -
1787987010 27.78° C 29% 1022.8 hPa 0 mm - - -
1787986698 27.78° C 29% 1022.8 hPa 0 mm - - -
1787986396 27.78° C 29% 1023.1 hPa 0 mm - - -
1787986091 27.78° C 29% 1023 hPa 0 mm - - -
1787985791 27.78° C 29% 1023.1 hPa 0 mm - - -
1787985490 27.78° C 29% 1023 hPa 0 mm - - -
1787985186 27.22° C 30% 1022.8 hPa 0 mm - - -
1787984885 27.22° C 30% 1023 hPa 0 mm - - -
1787984580 27.78° C 30% 1022.8 hPa 0 mm - - -
1787984280 27.22° C 30% 1022.6 hPa 0 mm - - -

* Rain latest hour (hover to see other rain measurements)
** Current wind speed in m/s (hover to see current wind gust speed)